When you browse on this site, cookies collect data to enhance your experience and personalize the content and advertising you see.
Visit our Privacy Policy to learn more. By continuing to use the site, you agree to this use of cookies and data.
  • In Portugal
  • List of Countries
  • For 7 days
  • Water Temperature
  • Weather Map
  • Weather Widgets
  • user-avatar
    Login

    Hourly Weather Kasama

    Today, 23 September, Monday

    Time Temperature Precipitation Wind Pressure Humidity
    00:00 +25°C° 0 mm 1 mps 721 mmHg 81%
    01:00 +25°C° 0 mm 1 mps 721 mmHg 81%
    02:00 +22°C° 0 mm 0 mps 720 mmHg 84%
    03:00 +22°C° 0 mm 0 mps 721 mmHg 85%
    04:00 +22°C° 0 mm 0 mps 721 mmHg 86%
    05:00 +22°C° 0 mm 0 mps 721 mmHg 87%
    06:00 +23°C° 0 mm 0 mps 721 mmHg 83%
    07:00 +24°C° 0 mm 0 mps 722 mmHg 80%
    08:00 +28°C° 0 mm 1 mps 722 mmHg 77%
    09:00 +30°C° 0 mm 1 mps 722 mmHg 72%
    10:00 +31°C° 0 mm 1 mps 722 mmHg 67%
    11:00 +34°C° 0 mm 2 mps 722 mmHg 61%
    12:00 +33°C° 0.3 mm 1 mps 721 mmHg 59%
    13:00 +34°C° 0.3 mm 1 mps 721 mmHg 57%
    14:00 +34°C° 0.3 mm 1 mps 720 mmHg 54%
    15:00 +33°C° 0.1 mm 1 mps 720 mmHg 60%
    16:00 +32°C° 0.1 mm 1 mps 720 mmHg 66%
    17:00 +31°C° 0.1 mm 1 mps 720 mmHg 71%
    18:00 +30°C° 0.1 mm 1 mps 720 mmHg 73%
    19:00 +26°C° 0.1 mm 0 mps 720 mmHg 75%
    20:00 +25°C° 0.1 mm 0 mps 720 mmHg 77%
    21:00 +25°C° 0 mm 0 mps 720 mmHg 77%
    22:00 +24°C° 0 mm 0 mps 721 mmHg 78%
    23:00 +24°C° 0 mm 0 mps 721 mmHg 78%

    Tomorrow, 24 September, Tuesday

    Time Temperature Precipitation Wind Pressure Humidity
    00:00 +24°C° 0.1 mm 0 mps 721 mmHg 80%
    01:00 +23°C° 0.1 mm 0 mps 720 mmHg 82%
    02:00 +23°C° 0.1 mm 0 mps 720 mmHg 84%
    03:00 +23°C° 0 mm 0 mps 720 mmHg 84%
    04:00 +23°C° 0 mm 0 mps 720 mmHg 85%
    05:00 +22°C° 0 mm 0 mps 721 mmHg 86%
    06:00 +24°C° 0 mm 0 mps 721 mmHg 84%
    07:00 +27°C° 0 mm 1 mps 721 mmHg 81%
    08:00 +28°C° 0 mm 1 mps 722 mmHg 78%
    09:00 +30°C° 0 mm 1 mps 722 mmHg 72%
    10:00 +32°C° 0 mm 1 mps 722 mmHg 66%
    11:00 +34°C° 0 mm 1 mps 721 mmHg 60%
    12:00 +34°C° 0 mm 1 mps 721 mmHg 57%
    13:00 +35°C° 0 mm 1 mps 720 mmHg 54%
    14:00 +34°C° 0 mm 0 mps 719 mmHg 52%
    15:00 +35°C° 0 mm 1 mps 719 mmHg 57%
    16:00 +33°C° 0 mm 1 mps 719 mmHg 63%
    17:00 +32°C° 0 mm 1 mps 719 mmHg 68%
    18:00 +31°C° 0.1 mm 1 mps 719 mmHg 71%
    19:00 +29°C° 0.1 mm 1 mps 720 mmHg 73%
    20:00 +28°C° 0.1 mm 1 mps 720 mmHg 75%
    21:00 +27°C° 0.4 mm 1 mps 720 mmHg 79%
    22:00 +26°C° 0.4 mm 1 mps 720 mmHg 83%
    23:00 +26°C° 0.4 mm 1 mps 720 mmHg 87%

    Day after tomorrow, 25 September, Wednesday

    Time Temperature Precipitation Wind Pressure Humidity
    00:00 +25°C° 0.4 mm 1 mps 720 mmHg 89%
    01:00 +25°C° 0.4 mm 1 mps 720 mmHg 91%
    02:00 +25°C° 0.4 mm 1 mps 719 mmHg 93%
    03:00 +22°C° 0 mm 0 mps 719 mmHg 93%
    04:00 +22°C° 0 mm 0 mps 719 mmHg 94%
    05:00 +22°C° 0 mm 0 mps 720 mmHg 94%
    06:00 +25°C° 0 mm 1 mps 720 mmHg 91%
    07:00 +27°C° 0 mm 1 mps 721 mmHg 88%
    08:00 +28°C° 0 mm 1 mps 721 mmHg 85%
    09:00 +30°C° 0 mm 1 mps 721 mmHg 77%
    10:00 +32°C° 0 mm 2 mps 721 mmHg 69%
    11:00 +35°C° 0 mm 2 mps 721 mmHg 61%
    12:00 +35°C° 0 mm 2 mps 720 mmHg 58%
    13:00 +36°C° 0 mm 2 mps 720 mmHg 56%
    14:00 +36°C° 0 mm 2 mps 719 mmHg 53%
    15:00 +34°C° 0.2 mm 1 mps 719 mmHg 60%
    16:00 +33°C° 0.2 mm 1 mps 719 mmHg 66%
    17:00 +32°C° 0.2 mm 1 mps 718 mmHg 73%
    18:00 +31°C° 0.3 mm 1 mps 719 mmHg 75%
    19:00 +27°C° 0.3 mm 0 mps 719 mmHg 78%
    20:00 +26°C° 0.3 mm 0 mps 720 mmHg 80%
    21:00 +27°C° 0.2 mm 1 mps 720 mmHg 84%
    22:00 +26°C° 0.2 mm 1 mps 720 mmHg 88%
    23:00 +25°C° 0.2 mm 1 mps 720 mmHg 92%

    26 September, Thursday

    Time Temperature Precipitation Wind Pressure Humidity
    00:00 +25°C° 0.1 mm 1 mps 720 mmHg 92%
    01:00 +25°C° 0.1 mm 1 mps 720 mmHg 91%
    02:00 +25°C° 0.1 mm 1 mps 719 mmHg 91%
    03:00 +25°C° 0 mm 1 mps 719 mmHg 91%
    04:00 +23°C° 0 mm 0 mps 720 mmHg 91%
    05:00 +22°C° 0 mm 0 mps 720 mmHg 91%
    06:00 +26°C° 0 mm 1 mps 720 mmHg 87%
    07:00 +27°C° 0 mm 1 mps 721 mmHg 84%
    08:00 +28°C° 0 mm 1 mps 721 mmHg 81%
    09:00 +30°C° 0 mm 1 mps 721 mmHg 74%
    10:00 +31°C° 0 mm 1 mps 721 mmHg 67%
    11:00 +33°C° 0 mm 1 mps 721 mmHg 60%
    12:00 +34°C° 0.4 mm 2 mps 720 mmHg 60%
    13:00 +34°C° 0.4 mm 2 mps 720 mmHg 59%
    14:00 +35°C° 0.4 mm 2 mps 719 mmHg 59%
    15:00 +32°C° 0.6 mm 2 mps 719 mmHg 67%
    16:00 +30°C° 0.6 mm 3 mps 719 mmHg 75%
    17:00 +28°C° 0.6 mm 3 mps 719 mmHg 83%
    18:00 +27°C° 0.1 mm 3 mps 719 mmHg 85%
    19:00 +26°C° 0.1 mm 3 mps 720 mmHg 87%
    20:00 +25°C° 0.1 mm 3 mps 721 mmHg 90%
    21:00 +25°C° 0.2 mm 3 mps 721 mmHg 91%
    22:00 +24°C° 0.2 mm 2 mps 721 mmHg 93%
    23:00 +24°C° 0.2 mm 1 mps 721 mmHg 95%

    27 September, Friday

    Time Temperature Precipitation Wind Pressure Humidity
    00:00 +23°C° 0.2 mm 1 mps 721 mmHg 94%
    01:00 +23°C° 0.2 mm 1 mps 721 mmHg 94%
    02:00 +23°C° 0.2 mm 1 mps 721 mmHg 93%
    03:00 +23°C° 0.1 mm 1 mps 721 mmHg 94%
    04:00 +23°C° 0.1 mm 1 mps 721 mmHg 94%
    05:00 +23°C° 0.1 mm 1 mps 721 mmHg 94%
    06:00 +23°C° 0 mm 1 mps 721 mmHg 92%
    07:00 +24°C° 0 mm 1 mps 722 mmHg 90%
    08:00 +25°C° 0 mm 2 mps 722 mmHg 88%
    09:00 +27°C° 0 mm 2 mps 722 mmHg 83%
    10:00 +28°C° 0 mm 2 mps 722 mmHg 78%
    11:00 +30°C° 0 mm 3 mps 722 mmHg 73%
    12:00 +30°C° 0 mm 3 mps 721 mmHg 70%
    13:00 +31°C° 0 mm 3 mps 721 mmHg 67%
    14:00 +32°C° 0 mm 2 mps 720 mmHg 64%
    15:00 +31°C° 0.1 mm 2 mps 720 mmHg 69%
    16:00 +30°C° 0.1 mm 2 mps 720 mmHg 74%
    17:00 +29°C° 0.1 mm 3 mps 720 mmHg 79%
    18:00 +27°C° 0 mm 2 mps 721 mmHg 83%
    19:00 +26°C° 0 mm 2 mps 721 mmHg 87%
    20:00 +25°C° 0 mm 2 mps 722 mmHg 91%
    21:00 +25°C° 0 mm 2 mps 722 mmHg 93%
    22:00 +24°C° 0 mm 1 mps 722 mmHg 94%
    23:00 +24°C° 0 mm 1 mps 722 mmHg 95%

    28 September, Saturday

    Time Temperature Precipitation Wind Pressure Humidity
    00:00 +24°C° 0 mm 1 mps 722 mmHg 95%
    01:00 +24°C° 0 mm 1 mps 722 mmHg 95%
    02:00 +23°C° 0 mm 1 mps 721 mmHg 95%
    03:00 +23°C° 0 mm 1 mps 721 mmHg 96%
    04:00 +23°C° 0 mm 1 mps 721 mmHg 96%
    05:00 +23°C° 0 mm 1 mps 722 mmHg 96%
    06:00 +24°C° 0 mm 1 mps 722 mmHg 92%
    07:00 +25°C° 0 mm 1 mps 722 mmHg 88%
    08:00 +26°C° 0 mm 1 mps 723 mmHg 84%
    09:00 +28°C° 0 mm 2 mps 723 mmHg 78%
    10:00 +29°C° 0 mm 2 mps 722 mmHg 73%
    11:00 +31°C° 0 mm 2 mps 722 mmHg 67%
    12:00 +31°C° 0 mm 2 mps 721 mmHg 65%
    13:00 +32°C° 0 mm 2 mps 721 mmHg 62%
    14:00 +34°C° 0 mm 2 mps 720 mmHg 59%
    15:00 +32°C° 0 mm 2 mps 720 mmHg 63%
    16:00 +31°C° 0 mm 1 mps 720 mmHg 67%
    17:00 +31°C° 0 mm 1 mps 719 mmHg 71%
    18:00 +29°C° 0 mm 1 mps 720 mmHg 75%
    19:00 +26°C° 0 mm 0 mps 720 mmHg 78%
    20:00 +24°C° 0 mm 0 mps 720 mmHg 82%
    21:00 +24°C° 0 mm 0 mps 720 mmHg 83%
    22:00 +24°C° 0 mm 0 mps 721 mmHg 84%
    23:00 +24°C° 0 mm 0 mps 721 mmHg 85%
    Show more